This demonstration page uses our WeatherBlox Daily Observations layout. Learn more.

Left ArrowRight Arrow

Hourly Observations for December 16, 2015

Temp ( °F °C ) Dew Point ( °F °C ) Humidity (%) Winds ( mph kmh ) Pressure ( in mb ) Visibility ( mi km ) Precip ( " mm )
12:53 am 00:53 Clear 35 1.7 34 1.1 96 96 E 5 7 29.97 1015 10 16 N/A
1:53 am 01:53 Clear 34 1.1 33 0.6 97 97 N N/A 29.97 1015 9 14 N/A
2:53 am 02:53 Clear with Mist and Fog 32 undefined 31 -0.6 96 96 N N/A 29.97 1015 6 10 N/A
3:53 am 03:53 Clear 33 0.6 33 0.6 100 100 NE 3 6 29.96 1015 8 13 N/A
4:53 am 04:53 Clear with Mist and Fog 32 undefined 31 -0.6 96 96 N N/A 29.96 1014 5 8 N/A
5:53 am 05:53 Clear with Mist and Fog 32 undefined 32 undefined 100 100 N N/A 29.93 1014 6 10 N/A
6:53 am 06:53 Clear 31 -0.6 30 -1.1 96 96 N N/A 29.93 1014 9 14 N/A
7:53 am 07:53 Sunny 32 undefined 31 -0.6 96 96 N N/A 29.96 1015 9 14 N/A
8:41 am 08:41 Sunny with Mist and Fog 33 0.6 32 undefined 96 96 N N/A 29.97 1015 3 4 N/A
8:49 am 08:49 Sunny with Mist and Fog 34 1 34 1 100 100 N N/A 29.97 1015 4 6 N/A
8:53 am 08:53 Sunny with Mist and Fog 35 1.7 34 1.1 96 96 N N/A 29.96 1015 4 6 N/A
9:53 am 09:53 Sunny 45 7.2 40 4.4 83 83 ESE 5 7 29.94 1014 10 16 N/A
10:53 am 10:53 Sunny 50 10 42 5.6 74 74 SSE 6 9 29.92 1013 10 16 N/A
11:53 am 11:53 Sunny 52 11.1 43 6.1 72 72 VRB 5 7 29.88 1012 10 16 N/A
12:53 pm 12:53 Sunny 57 13.9 44 6.7 62 62 S 6 9 29.85 1011 10 16 N/A
1:53 pm 13:53 Sunny 60 15.6 46 7.8 60 60 SSW 7 11 29.83 1010 10 16 N/A
2:53 pm 14:53 Mostly Sunny 61 16.1 45 7.2 56 56 S 8 13 29.79 1009 10 16 N/A
3:53 pm 15:53 Mostly Sunny 62 16.7 45 7.2 54 54 SW 3 6 29.75 1007 10 16 N/A
4:53 pm 16:53 Mostly Cloudy 62 16.7 45 7.2 54 54 VRB 6 9 29.76 1008 10 16 N/A
5:53 pm 17:53 Mostly Cloudy 61 16.1 45 7.2 56 56 VRB 5 7 29.74 1007 10 16 N/A
6:53 pm 18:53 Cloudy 61 16.1 41 5 48 48 VRB 6 9 29.74 1007 10 16 N/A
7:53 pm 19:53 Cloudy 61 16.1 42 5.6 50 50 S 3 6 29.75 1008 10 16 N/A
8:53 pm 20:53 Cloudy 60 15.6 43 6.1 53 53 VRB 3 6 29.75 1007 10 16 N/A
9:53 pm 21:53 Cloudy 60 15.6 47 8.3 62 62 SSW 10 17 29.75 1008 10 16 N/A
10:53 pm 22:53 Cloudy 60 15.6 48 8.9 65 65 SW 9 15 29.74 1007 10 16 N/A
11:53 pm 23:53 Cloudy 59 15 49 9.4 69 69 WSW 7 11 29.75 1007 10 16 N/A

Powered by AerisWeather